Location: Key Biscayne
(25.6930°N, 80.1630°W)
Time: 06:17:16
(UTC-05:00)

Tiangong 2 - Pass Details

Date: 12 November 2017
Orbit: 386 x 392 km, 42.8° (Epoch: 22 November)

Event Time Altitude Azimuth Distance (km) Brightness Sun altitude
Rises 18:16:41 0° 322° (NW) 2,268 5.3 -10.2°
Reaches altitude 10° 18:19:11 10° 341° (NNW) 1,411 4.0 -10.8°
Maximum altitude 18:21:31 19° 29° (NNE) 1,008 2.8 -11.3°
Enters shadow 18:22:25 17° 51° (NE) 1,075 2.8 -11.5°
